RH
82 76 88 95 94 100 101 100 99 98 98 95 93 93 94 96 98 95 93 95 95 95 96 95 91 89 89 87 85 83 81 81 83 86 78 72 65 41 28 32 26 15 10 10 9 8 8 7 7 7 7 8
79 78 89 92 90 96 99 98 94 92 93 92 92 91 90 92 95 95 95 95 94 94 95 94 91 88 89 90 87 84 82 81 81 85 83 72 61 45 31 27 24 17 14 13 11 11 11 9 10 10 10 11
80 85 93 89 90 96 98 98 94 93 94 91 91 89 88 89 92 95 97 97 97 96 92 89 88 88 89 90 87 83 80 79 78 80 84 76 63 57 46 31 23 20 20 18 17 16 15 14 13 13 13 12
85 92 96 88 90 95 95 98 98 99 98 96 97 95 90 90 91 92 97 99 98 94 87 81 79 81 85 88 87 83 78 74 72 73 77 75 57 46 43 36 26 20 20 21 21 19 17 17 16 15 15 13
83 88 91 87 90 94 94 98 100 100 99 99 99 98 92 89 88 87 90 94 94 90 85 79 73 72 78 85 84 77 75 71 66 60 58 58 48 37 33 30 27 22 19 20 20 20 18 18 17 17 16 15
82 87 91 91 92 94 96 96 98 98 98 100 98 98 95 91 89 86 88 90 90 87 84 80 73 71 76 82 75 61 59 62 61 54 45 41 37 35 32 28 26 24 22 22 21 20 19 19 20 19 19 17
76 81 86 94 95 96 97 93 93 94 95 99 98 97 95 92 90 90 94 93 89 85 82 79 75 72 74 81 78 65 55 51 52 51 46 40 34 32 31 28 26 25 24 25 24 23 22 21 21 21 20 19
65 69 78 88 92 94 96 93 91 91 93 98 99 99 97 93 93 97 99 95 91 87 83 78 73 70 70 74 79 80 72 57 49 50 50 44 39 35 32 29 26 25 24 23 24 24 23 20 20 19 19 19
57 65 77 84 90 90 91 95 95 94 96 98 99 100 100 96 96 100 99 97 95 91 87 81 73 68 68 70 72 79 83 75 62 56 53 47 45 43 41 38 34 31 29 25 23 25 25 21 21 20 15 14
56 65 75 82 87 87 86 91 97 98 98 98 99 100 99 100 100 100 99 99 99 96 93 87 78 69 66 70 72 76 83 86 80 72 65 57 53 50 48 49 48 46 42 36 30 31 37 37 43 41 31 29
51 59 70 83 87 87 89 89 91 93 94 97 99 101 100 99 100 99 98 98 100 100 98 94 84 71 65 69 74 80 85 90 92 90 87 79 71 64 60 58 59 60 58 54 47 42 45 48 55 58 56 57
44 49 57 70 73 78 86 86 87 88 94 99 98 97 98 98 99 100 98 98 100 100 99 99 92 77 66 67 72 78 82 85 88 92 95 95 90 85 79 72 69 68 67 69 68 63 57 51 52 53 56 62
35 43 48 52 58 75 87 83 86 90 94 99 98 96 96 97 99 100 99 97 98 100 100 101 99 86 68 65 70 72 76 79 80 81 86 92 96 96 94 89 81 76 73 72 75 78 76 69 62 58 56 57
31 32 42 47 49 68 83 79 81 87 90 94 96 96 95 96 99 100 99 98 98 100 101 100 101 91 70 61 64 64 69 75 75 74 75 78 83 88 92 94 91 87 83 79 76 77 80 80 77 74 71 65
47 32 31 44 51 58 68 77 81 79 82 89 92 95 97 98 98 96 94 96 95 95 99 100 99 92 76 64 60 61 65 69 71 70 70 71 71 74 78 81 85 87 87 86 84 82 82 83 83 84 85 82
63 56 37 37 51 61 65 76 85 83 84 89 90 95 100 100 98 95 93 94 89 86 93 99 99 94 84 75 65 62 63 61 61 61 60 60 61 63 66 68 72 77 81 82 84 84 85 85 85 86 86 85
50 68 62 44 42 55 65 74 84 86 87 88 89 94 97 98 100 95 92 94 91 89 90 93 99 95 86 80 72 63 60 55 51 52 51 50 50 52 55 58 62 66 71 75 77 77 78 79 79 80 80 78
28 50 72 68 50 43 50 67 82 85 84 85 86 91 96 99 101 98 93 95 96 97 94 89 94 98 88 78 73 64 59 56 52 48 47 47 46 46 46 49 54 58 61 65 70 72 73 73 72 72 73 74
23 32 57 80 77 59 46 49 65 78 83 88 88 88 94 96 96 97 96 97 99 99 99 92 89 97 94 80 71 67 63 62 60 57 55 56 56 55 53 51 53 56 58 61 63 67 69 70 71 71 71 72
25 29 40 64 81 79 72 55 49 60 68 79 90 87 84 89 95 99 98 99 99 98 99 97 92 94 97 88 76 71 69 70 72 74 75 76 76 75 73 68 65 64 65 67 66 65 65 65 66 67 69 70
31 36 35 56 79 80 86 81 60 57 61 65 78 85 85 90 96 98 98 100 98 97 99 100 99 97 97 95 88 79 74 73 76 82 85 85 85 85 83 80 76 74 72 69 67 66 65 63 60 57 56 58
37 45 45 65 88 80 80 88 78 73 78 71 65 70 77 86 94 95 97 100 98 98 98 99 101 100 97 98 97 92 86 81 78 80 85 90 91 87 81 77 75 73 70 67 64 63 62 62 60 53 44 38
49 51 64 76 86 89 88 90 88 87 89 80 71 73 74 82 95 97 98 100 99 99 99 98 100 100 99 99 100 99 97 94 90 87 91 96 96 91 85 80 77 72 69 67 64 62 61 59 58 56 49 39
76 60 72 87 82 84 88 90 94 98 95 84 83 93 91 91 97 98 100 101 99 100 100 99 100 100 100 99 100 100 100 100 99 97 98 100 99 97 95 89 82 76 71 68 67 65 62 59 57 55 55 51
97 82 78 92 88 78 78 87 91 93 100 96 95 99 94 96 100 99 100 101 100 101 100 100 100 100 100 100 100 100 100 101 100 100 99 100 100 100 100 94 86 81 74 69 66 64 61 58 56 53 53 52
77 95 95 95 94 90 88 89 82 79 91 97 97 97 94 98 102 100 99 100 100 100 100 101 100 100 100 100 100 100 100 100 100 100 100 100 100 101 100 98 92 86 81 77 72 70 66 61 56 53 51 48
41 67 87 94 92 92 95 97 92 89 95 97 95 93 94 99 100 100 100 100 100 99 98 97 95 98 101 100 100 100 100 100 101 100 100 100 100 100 100 100 97 90 87 86 82 79 73 63 58 55 51 48
35 40 53 69 76 77 86 99 101 97 98 99 99 97 98 100 100 100 100 100 101 99 97 94 88 88 95 101 100 100 100 99 101 100 100 100 100 100 100 100 99 96 94 91 87 87 81 71 63 54 48 48
41 40 39 44 51 54 64 81 93 95 96 96 97 100 100 99 99 99 99 100 101 99 97 97 90 80 85 100 101 99 100 100 100 100 100 100 100 100 100 100 100 100 98 94 94 97 93 83 71 62 60 58
39 41 41 41 41 42 44 52 61 70 79 85 91 99 101 101 101 100 99 99 99 101 99 99 97 86 83 96 102 99 99 100 100 100 100 100 100 100 100 100 100 101 99 97 99 100 97 91 80 75 79 73
42 40 40 39 39 39 39 38 39 41 48 56 65 73 78 82 86 92 98 101 100 100 101 101 101 97 89 91 100 101 99 100 100 100 100 100 100 100 100 100 99 100 100 100 100 99 98 96 87 82 85 82
Wind_Speed
25 23 25 27 25 32 34 35 37 35 34 33 35 36 34 32 32 32 28 25 23 23 24 22 22 23 24 23 24 25 25 26 29 33 33 30 29 27 26 27 27 26 26 27 28 28 28 27 26 24 23 23
25 23 23 25 25 29 30 29 31 31 30 28 29 30 30 30 30 32 33 33 31 29 29 26 24 24 23 23 23 25 26 27 30 34 33 30 30 29 28 27 27 26 25 26 27 27 27 26 25 24 23 24
22 23 22 23 26 30 30 31 32 30 26 24 25 25 26 27 28 30 32 34 34 32 30 26 23 23 23 22 22 24 26 28 30 33 34 31 29 30 30 28 26 26 25 26 26 26 26 25 24 23 23 23
19 22 24 24 26 29 28 28 29 26 23 23 24 25 26 27 28 28 30 32 32 29 26 22 19 19 21 22 22 24 26 28 29 30 32 29 28 28 28 28 26 25 25 25 26 25 25 24 23 23 22 22
18 21 25 26 26 27 27 26 27 26 26 26 25 26 27 28 29 26 25 27 26 24 22 20 17 16 18 20 22 23 26 28 27 26 26 26 26 27 26 26 26 25 25 25 24 24 24 22 21 21 22 22
18 19 23 25 26 27 27 27 28 29 29 29 27 27 27 26 25 22 21 22 23 22 21 19 17 14 14 18 22 23 24 27 27 25 23 22 23 26 26 25 25 24 25 25 24 23 24 21 19 19 20 22
19 20 22 25 27 27 28 29 30 30 29 29 27 28 27 23 22 21 21 22 21 20 20 19 16 13 12 15 20 25 26 27 27 26 24 23 21 23 25 25 24 23 23 24 23 22 23 22 19 18 18 20
20 21 23 26 26 26 28 30 30 30 29 29 29 31 30 24 23 24 23 22 20 17 17 16 13 11 11 12 15 22 28 30 29 27 26 25 23 21 21 22 22 21 20 21 22 21 20 20 18 17 18 18
20 21 25 27 27 27 28 30 32 30 29 31 32 33 31 26 26 25 24 22 18 16 14 13 11 10 11 11 12 15 22 29 33 31 29 29 27 24 22 21 20 20 19 19 20 20 19 18 17 16 16 16
21 21 23 25 27 30 28 27 31 32 30 33 36 34 31 27 25 23 23 22 19 16 14 13 11 11 11 11 12 12 14 21 28 32 32 33 32 30 27 24 22 21 20 20 21 21 19 18 17 16 16 16
24 22 21 23 27 30 30 28 31 33 33 36 38 35 30 26 24 23 24 23 20 18 16 14 12 12 13 12 11 10 10 12 17 23 28 32 35 36 35 32 29 26 25 24 24 24 23 21 20 18 18 17
27 25 23 24 25 29 33 33 33 33 34 35 34 31 29 29 30 30 27 24 22 21 19 16 15 15 14 14 12 10 10 10 11 15 20 24 29 34 39 40 38 34 32 31 30 28 28 27 25 23 22 21
28 28 26 26 26 27 33 35 34 33 33 33 33 32 32 34 36 33 27 23 23 23 21 19 18 18 16 15 15 14 13 12 12 13 15 18 22 26 32 38 41 39 37 36 36 34 33 33 32 30 28 27
28 29 28 28 27 27 30 32 33 33 32 32 34 34 34 37 35 27 24 22 21 23 22 21 20 20 19 18 17 16 16 15 15 16 16 17 18 20 23 28 33 38 40 40 40 39 38 38 37 36 34 33
27 29 29 29 28 27 28 30 32 33 32 32 33 35 38 39 31 21 20 18 17 20 22 23 22 21 20 20 19 18 17 17 17 17 17 17 18 18 19 20 23 27 33 37 39 40 40 39 38 36 35 34
24 28 30 30 29 28 27 29 33 35 35 34 35 37 39 40 32 22 17 15 15 17 19 21 22 22 22 21 21 20 19 19 19 18 18 19 19 19 18 18 18 20 22 26 30 33 34 34 33 31 29 29
24 24 27 29 30 30 29 29 32 35 36 35 35 36 39 41 36 25 16 16 18 18 19 21 23 23 22 22 22 22 21 21 21 20 20 20 19 19 19 19 18 19 19 21 23 24 26 27 28 27 25 24
26 24 24 26 28 30 30 30 31 32 33 35 35 35 38 40 37 31 23 19 20 22 22 22 23 24 23 23 23 23 22 22 22 21 21 20 20 20 21 21 20 20 21 21 22 22 24 25 26 25 24 23
28 27 25 25 26 28 29 30 32 33 33 34 35 36 37 38 38 39 33 26 24 25 24 24 23 24 25 25 25 25 24 23 23 23 23 22 22 22 22 22 22 22 22 23 23 23 23 24 25 26 25 24
31 29 29 28 28 27 26 27 29 32 33 34 35 36 37 37 40 41 36 33 31 29 28 26 24 24 26 28 29 29 27 27 26 26 26 25 25 25 25 25 24 23 23 24 24 24 24 25 26 26 26 26
33 32 31 29 29 29 26 26 27 27 29 32 34 35 37 38 39 40 38 38 38 36 33 30 27 26 27 30 31 32 32 31 30 29 29 28 27 27 26 26 26 25 25 25 26 26 26 27 27 28 28 28
34 33 32 30 30 31 29 28 27 26 25 27 30 32 35 37 38 39 39 39 41 42 40 35 33 31 29 31 33 34 35 35 35 34 32 30 29 28 26 26 26 26 27 27 28 28 28 28 29 30 31 31
35 33 33 32 31 30 31 30 29 28 27 27 26 26 29 34 37 37 35 34 36 43 45 42 40 37 34 34 36 37 38 39 39 39 37 33 29 28 26 26 26 27 29 30 31 30 30 30 30 31 33 34
35 34 33 33 33 33 32 33 32 30 29 29 27 25 27 29 32 34 34 32 32 38 42 41 43 43 40 39 39 39 41 41 39 38 37 32 28 28 27 26 27 27 29 30 31 32 32 32 32 33 34 35
34 33 33 32 33 34 35 36 36 33 31 31 28 28 29 28 29 30 32 33 34 36 36 36 37 38 39 41 41 41 44 42 37 36 35 32 29 28 28 28 28 28 29 30 30 30 31 31 33 34 34 35
33 32 31 31 30 30 32 36 37 35 35 36 34 33 32 31 32 32 30 30 33 37 39 38 36 33 34 38 40 43 46 45 40 38 36 34 33 32 31 31 31 30 30 30 29 28 28 30 31 32 33 34
27 31 32 34 34 34 32 30 31 32 33 35 38 39 38 35 33 33 33 33 35 39 42 44 43 38 33 34 37 41 45 46 42 39 38 37 37 36 35 34 34 33 32 31 30 29 30 30 30 31 33 34
14 20 25 29 33 38 40 36 35 36 32 30 31 33 38 39 36 32 31 32 35 38 41 43 46 45 39 34 36 41 45 47 45 42 41 40 40 39 38 38 36 35 34 33 33 32 33 32 32 33 33 32
9 11 13 16 20 26 32 37 41 45 43 39 35 30 29 33 37 37 37 36 37 39 41 42 43 46 45 38 38 42 42 43 43 43 44 43 43 42 41 41 40 38 38 37 35 34 35 34 34 34 30 28
13 14 13 14 15 16 19 24 30 36 41 44 46 44 37 32 32 34 35 36 36 38 39 40 40 42 45 40 38 40 40 39 38 38 39 40 41 42 43 44 44 42 41 41 39 37 37 36 36 34 31 30
18 18 19 19 19 19 19 20 21 23 27 31 38 45 46 44 42 40 37 32 31 33 35 37 38 40 44 45 41 40 41 40 38 36 35 36 37 39 41 44 46 45 43 44 42 40 38 37 38 37 35 34
Wind_Direction
269 266 240 231 225 210 213 221 221 226 229 235 245 253 260 254 253 250 245 249 255 266 277 276 274 272 271 268 263 258 253 251 246 241 239 232 226 225 227 228 226 226 227 230 230 230 231 231 231 231 230 228
269 267 239 236 240 223 223 230 231 236 239 247 257 259 260 261 265 262 255 254 260 274 282 281 280 278 275 270 261 253 245 242 243 243 239 229 224 222 222 225 225 226 228 230 230 230 231 230 229 229 230 231
266 261 248 249 249 236 236 243 243 242 241 254 265 266 269 272 275 272 264 259 265 278 283 283 282 280 277 271 260 249 241 237 239 243 240 229 225 226 223 222 223 225 228 231 232 232 232 231 230 229 229 232
266 253 249 254 252 244 247 252 250 245 245 256 264 267 271 275 276 274 268 263 269 276 279 283 282 276 273 268 261 249 240 236 236 239 240 230 220 222 223 221 220 220 222 227 230 231 231 231 230 230 229 232
270 261 257 257 256 253 257 261 257 256 257 258 261 264 266 271 274 273 268 265 267 270 274 278 279 275 269 262 258 251 242 236 233 231 234 231 218 214 217 217 218 217 217 220 224 228 228 229 229 230 229 231
274 267 261 259 259 259 262 263 261 263 263 262 261 262 263 265 267 267 265 264 265 268 272 273 273 274 267 255 246 243 240 236 231 226 224 226 221 215 214 213 214 215 217 218 220 225 226 224 224 225 226 228
275 270 264 260 260 261 264 264 264 267 268 267 262 260 264 260 258 263 262 260 261 265 270 272 269 267 263 252 242 236 235 233 229 224 219 218 219 218 215 213 213 213 216 216 218 224 225 223 221 220 222 225
271 273 271 266 262 264 265 265 265 268 270 269 265 263 264 257 254 260 259 256 258 263 268 270 268 267 264 256 247 239 235 234 230 225 220 216 214 214 214 212 212 213 214 214 215 219 224 223 220 220 222 225
263 269 274 271 266 266 264 263 262 264 269 270 269 265 258 250 249 254 255 254 256 259 260 261 264 269 270 265 254 244 237 235 233 229 224 221 217 213 213 213 213 215 216 218 217 218 222 220 217 217 220 225
258 258 268 271 271 270 263 263 262 261 269 273 271 262 249 241 242 248 254 255 253 251 251 252 259 264 266 267 261 253 244 239 238 236 233 230 226 221 218 216 217 220 222 223 223 222 225 224 221 219 220 225
257 255 258 261 267 268 262 265 266 265 272 273 266 252 243 245 249 255 256 254 250 245 244 246 251 258 257 255 253 248 243 244 246 245 243 241 238 234 230 226 223 223 226 229 230 229 230 232 233 231 228 233
256 255 253 251 256 260 262 266 267 269 272 271 265 256 260 269 270 267 258 250 249 246 243 242 245 249 246 244 240 233 233 238 244 247 247 245 244 242 239 236 232 228 228 232 236 237 237 238 240 239 238 239
256 256 254 252 252 254 261 267 268 270 270 268 270 272 276 279 278 271 255 245 247 244 241 241 245 243 237 237 235 233 239 238 232 236 241 241 242 241 240 239 237 234 233 233 237 241 244 244 244 244 243 243
256 257 255 255 255 251 255 264 268 269 270 270 272 278 280 276 275 266 251 247 245 241 242 246 246 242 235 233 235 238 244 243 232 231 235 237 240 240 239 239 238 237 237 237 237 240 244 247 247 247 246 245
260 261 258 255 255 253 252 258 263 266 268 269 270 274 272 265 262 252 246 249 248 251 255 254 248 241 238 236 236 238 244 247 240 236 236 237 239 240 239 239 239 238 238 238 236 237 239 242 244 245 245 244
257 264 264 259 256 255 254 255 258 262 265 268 270 268 260 254 250 245 242 245 251 262 263 257 250 244 242 240 238 237 241 243 242 240 238 237 239 239 239 239 240 241 240 239 237 235 234 235 236 236 237 238
249 256 263 264 260 256 254 252 254 259 265 269 270 269 263 255 250 246 244 247 251 258 261 260 255 249 244 242 240 237 238 239 240 241 240 241 242 242 244 244 245 246 246 245 243 241 238 235 234 233 232 235
251 249 252 260 262 260 258 253 251 252 259 265 267 269 267 260 256 254 254 252 251 254 255 258 259 253 245 242 241 240 239 239 239 240 241 243 245 246 247 247 249 251 253 253 250 248 246 244 242 240 238 239
253 250 248 253 258 259 259 257 254 250 251 258 262 264 262 260 259 256 260 262 253 252 253 253 258 254 246 240 240 240 238 237 236 237 239 242 245 247 247 247 248 250 253 256 257 256 253 251 250 248 246 244
252 251 249 250 254 257 258 259 259 256 254 252 255 261 263 266 261 254 263 273 262 252 249 248 252 252 247 243 241 241 239 237 237 239 242 245 246 247 248 248 247 247 249 251 254 256 256 255 255 254 252 250
251 250 248 248 251 254 255 256 257 258 260 257 255 259 262 266 265 259 266 276 271 260 250 246 247 249 247 244 243 242 242 242 242 243 244 246 247 247 247 246 246 246 247 248 249 251 253 254 255 256 256 255
253 248 246 244 248 254 255 255 255 253 254 257 258 259 260 263 265 265 267 274 276 268 256 249 247 250 250 248 248 247 247 246 245 245 245 245 246 245 245 245 245 246 246 247 247 247 247 248 250 252 253 252
257 249 244 242 243 248 254 255 255 253 250 249 250 251 254 258 262 265 268 269 272 269 262 255 251 253 254 253 254 254 255 252 247 246 245 245 244 243 244 245 246 246 245 246 246 245 244 243 244 246 248 248
258 253 245 242 242 243 248 253 252 251 250 248 245 243 243 248 254 260 263 262 264 265 265 263 258 256 256 256 255 253 255 255 252 250 246 243 243 243 243 243 245 245 244 245 246 245 244 242 241 241 243 244
253 256 249 244 245 246 246 249 252 253 252 248 243 240 241 242 246 252 255 259 262 262 264 265 261 260 263 262 260 257 256 256 257 254 248 243 241 241 242 241 242 243 244 246 248 249 248 246 244 242 241 242
245 250 251 244 240 242 244 244 249 252 250 248 247 246 244 241 243 248 250 253 258 260 262 264 263 266 270 269 267 265 261 257 257 256 249 245 242 240 242 243 243 243 245 248 251 252 251 248 247 246 245 243
245 244 246 246 241 241 246 244 243 247 245 243 246 249 248 245 244 246 246 247 249 253 257 261 262 262 265 269 269 270 266 258 255 255 251 248 245 242 241 241 243 243 245 248 250 248 247 249 250 248 246 244
252 248 247 250 247 244 246 244 244 250 253 249 247 246 244 244 245 244 245 247 248 251 253 255 258 258 260 264 263 265 267 261 257 257 254 250 250 248 244 241 241 242 244 246 246 246 247 249 250 249 249 248
255 256 253 254 255 250 248 246 246 250 253 253 254 256 250 243 245 247 249 251 251 253 256 256 255 254 256 258 256 258 262 261 261 262 259 257 257 256 254 249 243 242 244 245 243 243 245 248 249 250 252 251
265 261 257 253 254 255 253 251 250 250 251 248 249 255 259 254 249 249 249 249 249 253 259 261 257 253 252 252 251 253 256 257 260 262 260 259 260 261 260 257 251 246 245 244 242 239 240 244 248 248 248 246
277 272 269 265 262 261 260 260 260 257 256 252 248 252 257 259 259 258 255 252 250 255 259 258 258 255 252 251 248 247 251 254 253 253 254 256 258 260 260 259 256 252 249 246 242 238 237 240 244 246 246 245